Find Starlink 11295

NORAD ID: 61536 Int'l Des: 2024-184 Owner: SPXS Country: US Constellation: starlink operational
LEOCIRCULAR

当前视图

正在加载3D地球...

About Starlink 11295

Starlink 11295 (NORAD 61536) is a starlink constellation satellite (v2 mini d2c) launched Oct 15, 2024 by SPXS of US. It operates in LEO, CIRCULAR orbit with a mass of 960.00 kg.

关于 Starlink 11295

正在加载描述...

即将过境

Passes for default location (London). Set your location on the main map for personalized predictions.

高度历史

Loading altitude history...

两行轨道根数

1 61536U 24184E 26170.97562222 .00001296 00000-0 15555-4 0 9994
2 61536 53.1599 91.9521 0001387 118.9337 241.1821 15.69717311 96480
Epoch: Jun 19, 2026 • Age: 36 hours

当前状态

高度 359.2 km
速度 7.70 km/s
星下点 16.82°N, 173.41°E
发射日期 Oct 15, 2024
运行时间 1.6 years
类型 internet

技术详情

分类 Payload
质量 960.00 kg
干质量 910.00 kg
总质量 960.00 kg
长度 0.30 m
直径 4.10 m
跨度 29.00 m
形状 Box + pan
制造商 SPXS
平台类型 Starlink V2MD
阶段状态 In Orbit
所有者/国家 SPXS/US

Most Searched